Date String (YYYY-MM-DD hh:mm:ss) UTC,Instrument flags,Ambient pressure (hPa),Sample flow (lpm),Bypass flow (lpm),Sample temperature (°C),Ambient temperature (°C),ASC tube jacket temperature (°C),LED temperature (°C),Box temperature (°C),Sample RH (%),Span deviation,Mass concentration (μg/m³),Mass concentration (μg/m³),Mass concentration (μg/m³)
DateTimeUTC,F1_M11,P_M11,Q1_M11,Q2_M11,T1_M11,T2_M11,T3_M11,T4_M11,T5_M11,U1_M11,ZSPAN_M11,X0_M11,X2_M11,X1_M11
2021-10-22 23:00:00,,0823.3,4.99,0.00,29.6,27.5,00.0,38.8,31.3,08.4,0000.0,0016.37,0003.62,0001.53
2021-10-22 23:01:00,,0823.3,5.01,0.00,29.6,27.8,00.0,38.8,31.4,08.4,0000.0,0017.16,0003.66,0001.53
2021-10-22 23:02:00,,0823.3,4.99,0.00,29.7,28.1,00.0,38.8,31.4,08.4,0000.0,0016.49,0003.62,0001.53
2021-10-22 23:03:00,,0823.3,5.00,0.00,29.7,28.3,00.0,38.8,31.5,08.4,0000.0,0016.03,0003.57,0001.52
2021-10-22 23:04:00,,0823.3,5.00,0.00,29.7,28.4,00.0,38.8,31.5,08.4,0000.0,0016.17,0003.56,0001.52
2021-10-22 23:05:00,,0823.3,5.00,0.00,29.7,28.6,00.0,38.8,31.6,08.4,0000.0,0018.31,0003.56,0001.51
2021-10-22 23:06:00,,0823.4,5.00,0.00,29.8,28.7,00.0,38.8,31.6,08.4,0000.0,0018.98,0003.57,0001.51
2021-10-22 23:07:00,,0823.3,5.00,0.00,29.8,28.8,00.0,38.8,31.6,08.4,0000.0,0018.78,0003.54,0001.51
2021-10-22 23:08:00,,0823.3,5.00,0.00,29.8,28.9,00.0,38.8,31.7,08.4,0000.0,0018.94,0003.55,0001.51
2021-10-22 23:09:00,,0823.3,5.00,0.00,29.9,29.0,00.0,38.8,31.7,08.3,0000.0,0019.61,0003.60,0001.52
2021-10-22 23:10:00,,0823.3,5.00,0.00,29.9,29.1,00.0,38.8,31.8,08.3,0000.0,0019.33,0003.62,0001.53
2021-10-22 23:11:00,,0823.3,5.00,0.00,30.0,29.2,00.0,38.9,31.7,08.3,0000.0,0017.88,0003.62,0001.53
2021-10-22 23:12:00,,0823.4,4.99,0.00,30.0,29.2,00.0,38.9,31.8,08.3,0000.0,0015.65,0003.58,0001.52
2021-10-22 23:13:00,,0823.3,5.00,0.00,30.0,29.3,00.0,38.9,31.9,08.3,0000.0,0015.57,0003.57,0001.53
2021-10-22 23:14:00,,0823.3,4.99,0.00,30.0,29.3,00.0,38.9,31.9,08.3,0000.0,0016.49,0003.57,0001.53
2021-10-22 23:15:00,,0823.4,5.01,0.00,30.1,29.3,00.0,39.0,31.9,08.2,0000.0,0015.83,0003.60,0001.55
2021-10-22 23:16:00,,0823.3,5.00,0.00,30.1,28.0,00.0,39.0,31.7,08.2,0000.0,0013.64,0003.62,0001.57
2021-10-22 23:17:00,,0823.4,4.99,0.00,29.9,25.8,00.0,39.0,31.3,08.2,0000.0,0014.30,0003.63,0001.58
2021-10-22 23:18:00,,0823.4,5.01,0.00,29.8,25.4,00.0,38.9,31.1,08.3,0000.0,0015.67,0003.66,0001.58
2021-10-22 23:19:00,,0823.4,4.99,0.00,29.7,25.9,00.0,38.9,31.1,08.4,0000.0,0015.31,0003.65,0001.59
2021-10-22 23:20:00,,0823.4,5.01,0.00,29.6,26.4,00.0,38.8,31.1,08.4,0000.0,0016.52,0003.59,0001.59
2021-10-22 23:21:00,,0823.4,4.99,0.00,29.6,26.9,00.0,38.8,31.2,08.4,0000.0,0016.13,0003.62,0001.60
2021-10-22 23:22:00,,0823.4,5.01,0.00,29.6,27.3,00.0,38.7,31.2,08.4,0000.0,0016.81,0003.60,0001.60
2021-10-22 23:23:00,,0823.4,4.99,0.00,29.6,27.7,00.0,38.7,31.3,08.4,0000.0,0017.54,0003.61,0001.59
2021-10-22 23:24:00,,0823.4,5.01,0.00,29.6,28.0,00.0,38.7,31.3,08.4,0000.0,0018.83,0003.64,0001.59
2021-10-22 23:25:00,,0823.4,5.01,0.00,29.6,28.2,00.0,38.7,31.4,08.4,0000.0,0018.73,0003.61,0001.59
2021-10-22 23:26:00,,0823.3,5.00,0.00,29.6,28.3,00.0,38.7,31.4,08.4,0000.0,0019.11,0003.55,0001.57
2021-10-22 23:27:00,,0823.3,4.99,0.00,29.7,28.5,00.0,38.7,31.5,08.3,0000.0,0020.29,0003.47,0001.57
2021-10-22 23:28:00,,0823.3,5.02,0.00,29.7,28.6,00.0,38.7,31.5,08.3,0000.0,0021.41,0003.44,0001.55
2021-10-22 23:29:00,,0823.3,5.01,0.00,29.7,28.7,00.0,38.7,31.5,08.3,0000.0,0020.47,0003.41,0001.54
2021-10-22 23:30:00,,0823.3,5.00,0.00,29.8,28.8,00.0,38.7,31.6,08.3,0000.0,0020.57,0003.38,0001.53
2021-10-22 23:31:00,,0823.3,4.99,0.00,29.8,28.9,00.0,38.8,31.6,08.2,0000.0,0019.29,0003.37,0001.52
2021-10-22 23:32:00,,0823.3,4.99,0.00,29.8,28.9,00.0,38.8,31.7,08.2,0000.0,0019.59,0003.35,0001.51
2021-10-22 23:33:00,,0823.3,5.00,0.00,29.9,29.0,00.0,38.8,31.7,08.1,0000.0,0019.42,0003.33,0001.50
2021-10-22 23:34:00,,0823.3,5.01,0.00,29.9,29.0,00.0,38.8,31.7,08.1,0000.0,0018.69,0003.30,0001.50
2021-10-22 23:35:00,,0823.3,5.01,0.00,29.9,29.1,00.0,38.8,31.8,08.1,0000.0,0017.90,0003.23,0001.50
2021-10-22 23:36:00,,0823.3,4.99,0.00,30.0,29.2,00.0,38.9,31.8,08.1,0000.0,0017.84,0003.25,0001.51
2021-10-22 23:37:00,,0823.4,5.01,0.00,30.0,29.2,00.0,38.9,31.9,08.1,0000.0,0018.08,0003.28,0001.52
2021-10-22 23:38:00,,0823.3,5.00,0.00,30.0,29.2,00.0,38.9,31.9,08.1,0000.0,0018.27,0003.29,0001.52
2021-10-22 23:39:00,,0823.3,5.00,0.00,30.0,29.3,00.0,38.9,31.9,08.1,0000.0,0015.85,0003.25,0001.52
2021-10-22 23:40:00,,0823.3,5.00,0.00,30.1,29.3,00.0,39.0,31.9,08.1,0000.0,0014.74,0003.22,0001.52
2021-10-22 23:41:00,,0823.4,5.00,0.00,30.1,28.1,00.0,39.0,31.8,08.2,0000.0,0016.04,0003.26,0001.54
2021-10-22 23:42:00,,0823.4,4.99,0.00,29.9,25.7,00.0,39.0,31.3,08.4,0000.0,0016.74,0003.34,0001.56
2021-10-22 23:43:00,,0823.4,5.01,0.00,29.8,25.3,00.0,38.9,31.1,08.5,0000.0,0017.39,0003.34,0001.58
2021-10-22 23:44:00,,0823.4,5.00,0.00,29.7,25.7,00.0,38.9,31.1,08.5,0000.0,0017.93,0003.37,0001.59
2021-10-22 23:45:00,,0823.4,4.99,0.00,29.6,26.2,00.0,38.8,31.0,08.5,0000.0,0018.45,0003.40,0001.61
2021-10-22 23:46:00,,0823.4,5.00,0.00,29.5,26.7,00.0,38.8,31.1,08.5,0000.0,0018.75,0003.47,0001.61
2021-10-22 23:47:00,,0823.4,5.00,0.00,29.5,27.1,00.0,38.7,31.1,08.5,0000.0,0020.28,0003.54,0001.60
2021-10-22 23:48:00,,0823.4,5.00,0.00,29.5,27.5,00.0,38.7,31.2,08.5,0000.0,0021.28,0003.59,0001.62
2021-10-22 23:49:00,,0823.4,5.00,0.00,29.5,27.8,00.0,38.7,31.2,08.5,0000.0,0021.69,0003.67,0001.64
2021-10-22 23:50:00,,0823.3,5.02,0.00,29.5,28.0,00.0,38.7,31.3,08.5,0000.0,0023.39,0003.81,0001.65
2021-10-22 23:51:00,,0823.4,5.00,0.00,29.6,28.2,00.0,38.7,31.3,08.5,0000.0,0024.84,0003.89,0001.65
2021-10-22 23:52:00,,0823.3,5.01,0.00,29.6,28.3,00.0,38.7,31.4,08.4,0000.0,0024.39,0003.93,0001.67
2021-10-22 23:53:00,,0823.3,4.99,0.00,29.6,28.4,00.0,38.7,31.4,08.4,0000.0,0022.85,0003.87,0001.65
2021-10-22 23:54:00,,0823.4,5.00,0.00,29.6,28.5,00.0,38.7,31.4,08.4,0000.0,0023.26,0003.87,0001.64
2021-10-22 23:55:00,,0823.4,5.01,0.00,29.7,28.6,00.0,38.7,31.5,08.4,0000.0,0024.45,0003.89,0001.64
2021-10-22 23:56:00,,0823.4,5.00,0.00,29.7,28.7,00.0,38.7,31.5,08.4,0000.0,0025.58,0003.91,0001.64
2021-10-22 23:57:00,,0823.4,5.00,0.00,29.7,28.8,00.0,38.7,31.6,08.4,0000.0,0025.42,0003.89,0001.65
2021-10-22 23:58:00,,0823.4,5.00,0.00,29.8,28.8,00.0,38.7,31.6,08.4,0000.0,0024.19,0003.82,0001.65
2021-10-22 23:59:00,,0823.4,5.00,0.00,29.8,28.9,00.0,38.7,31.6,08.4,0000.0,0024.43,0003.82,0001.65
